[[{"header":{"parameterUnit":"m.s-1","parameterCategory":1,"la1":30.2992,"la2":30.254,"lo1":-89.0895,"lo2":-89.0443,"dy":0.0025,"dx":0.0025,"nx":19,"ny":19,"refTime":"2026-03-26T09:00:00:Z","depth":0,"parameterNumber":2,"parameterNumberName":"U-component_of_WINDS"},"data":[0,0,0,-0.7706,-0.7706,-0.7717,-0.7717,-0.7739,-0.774,0,0,0,0,0,0,0,0,0,0,0,-0.7706,-0.7707,-0.7705,-0.7706,-0.7717,-0.7717,-0.7739,-0.774,0,0,0,0,0,0,0,0,0,0,0,-0.7706,-0.7707,-0.7707,-0.7706,-0.7717,-0.7717,-0.7739,-0.7728,0,0,0,0,0,0,0,0,0,0,-0.7716,-0.7721,-0.7707,-0.7707,-0.7706,-0.7717,-0.7717,-0.7728,-0.7729,-0.7738,0,-0.7746,0,-0.7743,-0.7742,-0.7742,0,0,0,-0.7703,-0.772,-0.7719,-0.7707,-0.7706,-0.7717,-0.7711,-0.7728,-0.773,-0.774,-0.7746,-0.7747,-0.7744,-0.7742,-0.7742,-0.7801,-0.7802,0,0,-0.7702,-0.7711,-0.7718,-0.772,-0.7718,-0.7711,-0.7712,-0.7729,-0.7737,-0.7746,-0.7747,-0.7744,-0.7742,-0.7742,-0.7801,-0.7801,0,0,0,-0.7703,-0.7711,-0.7709,-0.7719,-0.7721,-0.7711,-0.7712,-0.7736,-0.7735,-0.7747,-0.7744,-0.7742,-0.7743,-0.78,-0.7801,-0.783,0,0,0,-0.7702,-0.7711,-0.7709,-0.7714,-0.772,-0.7729,-0.7719,-0.7734,-0.7736,-0.7744,-0.7742,-0.7743,-0.78,-0.7801,-0.7828,-0.7843,0,0,0,-0.7704,-0.7711,-0.7714,-0.7715,-0.772,-0.7728,-0.7728,-0.7734,-0.7734,-0.7742,-0.7743,-0.7799,-0.78,-0.7827,-0.784,-0.7861,0,0,0,-0.771,-0.774,-0.7715,-0.7747,-0.772,-0.7746,-0.7727,-0.7746,-0.7757,-0.7742,-0.78,-0.7801,-0.7826,-0.7838,-0.7859,-0.7881,-0.789,0,0,-0.7753,-0.7745,-0.7764,-0.7742,-0.7774,-0.7743,-0.778,-0.7781,-0.7775,-0.7793,-0.7794,-0.7829,-0.784,-0.7861,-0.794,-0.7947,0,0,0,-0.7781,-0.7794,-0.7801,-0.7811,-0.7812,-0.7815,-0.7809,-0.781,-0.7825,-0.7785,-0.7841,-0.7848,-0.786,-0.787,-0.7876,-0.7886,-0.7806,-0.7805,-0.7805,-0.7855,-0.7844,-0.7874,-0.7864,-0.7874,-0.7868,-0.7875,-0.7875,-0.7862,-0.7875,-0.7881,-0.793,-0.7942,-0.7947,-0.7957,-0.789,-0.7891,-0.7891,-0.7891,-0.7918,-0.7935,-0.7916,-0.7938,-0.7927,-0.7945,-0.7941,-0.7931,-0.7947,-0.7925,-0.7935,-0.7912,-0.7955,-0.7964,-0.7893,-0.7892,-0.7892,-0.7892,-0.7892,-0.7966,-0.7972,-0.7972,-0.7985,-0.7997,-0.7986,-0.8002,-0.7991,-0.7981,-0.799,-0.7996,-0.7995,-0.7994,-0.7994,-0.7994,-0.7994,-0.7994,-0.7994,-0.7994,-0.8016,-0.8015,-0.803,-0.8034,-0.8038,-0.8044,-0.8038,-0.8043,-0.8045,-0.8036,-0.8036,-0.8021,-0.7961,-0.7947,-0.7997,-0.7996,-0.7996,-0.7996,-0.7996,-0.8086,-0.8068,-0.8091,-0.8096,-0.81,-0.8112,-0.8097,-0.8108,-0.811,-0.8119,-0.8102,-0.8059,-0.8051,-0.8046,-0.8034,-0.8104,-0.8104,-0.8104,-0.8104,-0.8127,-0.8122,-0.8143,-0.8151,-0.8158,-0.8147,-0.8175,-0.817,-0.8164,-0.8164,-0.8152,-0.8135,-0.813,-0.8125,-0.8119,-0.8107,-0.8194,-0.8194,-0.8194,-0.817,-0.8164,-0.819,-0.8182,-0.8184,-0.8186,-0.8211,-0.8223,-0.8211,-0.8198,-0.8165,-0.8161,-0.8134,-0.8125,-0.8112,-0.8101,-0.808,0,0]},{"header":{"parameterUnit":"m.s-1","parameterCategory":1,"la1":30.2992,"la2":30.254,"lo1":-89.0895,"lo2":-89.0443,"dy":0.0025,"dx":0.0025,"nx":19,"ny":19,"refTime":"2026-03-26T09:00:00:Z","depth":0,"parameterNumber":3,"parameterNumberName":"V-component_of_WINDS"},"data":[0,0,0,0.6293,0.6293,0.6271,0.6271,0.6249,0.6249,0,0,0,0,0,0,0,0,0,0,0,0.6303,0.6303,0.6293,0.6293,0.6271,0.6271,0.6249,0.6249,0,0,0,0,0,0,0,0,0,0,0,0.6303,0.6303,0.6303,0.6293,0.6272,0.6271,0.6249,0.6263,0,0,0,0,0,0,0,0,0,0,0.6283,0.6297,0.6303,0.6303,0.6293,0.6272,0.6271,0.6264,0.6262,0.6261,0,0.6263,0,0.6256,0.6248,0.6248,0,0,0,0.6289,0.6298,0.6289,0.6303,0.6292,0.6272,0.628,0.6263,0.6261,0.626,0.6262,0.6261,0.6255,0.6248,0.6248,0.6257,0.6258,0,0,0.629,0.6301,0.629,0.6288,0.6293,0.6281,0.6279,0.6262,0.6265,0.6262,0.6261,0.6255,0.6248,0.6248,0.6257,0.6257,0,0,0,0.6296,0.6302,0.6293,0.6289,0.6285,0.628,0.6279,0.6266,0.6262,0.626,0.6255,0.6248,0.6248,0.6257,0.6257,0.6279,0,0,0,0.6297,0.6306,0.6294,0.6301,0.6285,0.6275,0.6283,0.6263,0.6261,0.6255,0.6248,0.6247,0.6257,0.6257,0.6278,0.6288,0,0,0,0.6303,0.6306,0.6305,0.6301,0.6293,0.6275,0.627,0.6262,0.6258,0.6248,0.6247,0.6256,0.6257,0.6277,0.6286,0.6294,0,0,0,0.6313,0.6324,0.6306,0.6315,0.6293,0.629,0.627,0.6267,0.6261,0.6248,0.6257,0.6257,0.6277,0.6285,0.6293,0.6304,0.6309,0,0,0.6332,0.6326,0.6331,0.6314,0.6317,0.6292,0.6297,0.6281,0.6269,0.6262,0.6262,0.6279,0.6286,0.6294,0.6334,0.6339,0,0,0,0.6341,0.6344,0.6342,0.6338,0.6327,0.6318,0.63,0.6294,0.6288,0.6268,0.6283,0.6287,0.6291,0.6296,0.63,0.6303,0.626,0.626,0.626,0.6383,0.6369,0.6376,0.6359,0.6356,0.6337,0.6333,0.6322,0.6307,0.6311,0.6309,0.6335,0.634,0.6343,0.6347,0.6312,0.6313,0.6313,0.6313,0.641,0.6413,0.6395,0.6395,0.638,0.638,0.6363,0.6353,0.635,0.6335,0.6338,0.6324,0.6348,0.6351,0.6314,0.6314,0.6314,0.6314,0.6314,0.6437,0.6436,0.6429,0.6423,0.642,0.6402,0.6401,0.6386,0.6372,0.6375,0.6372,0.6372,0.637,0.6375,0.6375,0.6375,0.6375,0.6375,0.6375,0.6467,0.6459,0.6461,0.6451,0.6447,0.644,0.6422,0.6418,0.6409,0.6398,0.6398,0.6384,0.6354,0.6347,0.6377,0.6376,0.6376,0.6376,0.6376,0.6501,0.6491,0.6493,0.649,0.6477,0.6475,0.6457,0.6449,0.6443,0.6443,0.6428,0.6408,0.64,0.6397,0.6391,0.6431,0.6431,0.6431,0.6431,0.6524,0.6519,0.6518,0.6514,0.6507,0.6492,0.6494,0.6481,0.6465,0.6461,0.6453,0.6444,0.6442,0.6435,0.6431,0.6426,0.6473,0.6473,0.6473,0.6544,0.6538,0.6543,0.6529,0.6519,0.651,0.6512,0.6507,0.6487,0.6474,0.6457,0.6455,0.6441,0.6436,0.6423,0.6418,0.6407,0,0]}]]